Louisville, KY

4:02 PM EST on December 02, 2016 (GMT -0500)
Bowman

Weather History for KLOU - October, 2013

Change the Weather History Date:

Monday, October 7, 2013

  Actual Average Record
Temperature  
Mean Temperature 56 °F 61 °F  
Max Temperature 65 °F 72 °F 91 °F (2007)
Min Temperature 47 °F 50 °F 30 °F (1952)
Degree Days  
Heating Degree Days 9 6  
Month to date heating degree days 11 34  
Since 1 July heating degree days 21 70  
Cooling Degree Days 0 2  
Month to date cooling degree days 40 14  
Year to date cooling degree days 1444 1427  
Growing Degree Days 5 (Base 50)    
Moisture  
Dew Point 44 °F    
Average Humidity 69    
Maximum Humidity 93    
Minimum Humidity 44    
Precipitation  
Precipitation 0.00 in 0.09 in 1.64 in (1955)
Month to date precipitation 7.38 0.64  
Year to date precipitation 47.83 35.34  
Sea Level Pressure  
Sea Level Pressure 30.02 in    
Wind  
Wind Speed 5 mph (West)    
Max Wind Speed 14 mph    
Max Gust Speed 20 mph    
Visibility 10 miles    
Events      
T = Trace of Precipitation, MM = Missing Value Source: NWS Daily Summary

Daily Weather History Graph

Daily Weather History Graph

Search for Another Location

Airport or City:

Trip Planner

Search our weather history database for the weather conditions in past years. The results will help you decide how hot, cold, wet, or windy it might be!

Date:

Astronomy

Oct. 07, 2013 Rise Set
Actual Time 7:44 AM EDT 7:16 PM EDT
Civil Twilight 7:17 AM EDT 7:42 PM EDT
Nautical Twilight 6:47 AM EDT 8:12 PM EDT
Astronomical Twilight 6:16 AM EDT 8:43 PM EDT
Moon 10:30 AM EDT (10/7) 9:03 PM EDT (10/7)
Length of Visible Light 12h 24m
Length of Day
11h 31m
Waxing Crescent, 8% of the Moon is Illuminated
Oct 7
Waxing Crescent
Oct 11
First Quarter
Oct 18
Full
Oct 26
Last Quarter
Nov 3
New

Hourly Weather History & Observations

Time (EDT) Temp. Dew Point Humidity Pressure Visibility Wind Dir Wind Speed Gust Speed Precip Events Conditions
12:53 AM 53.1 °F 45.0 °F 74% 29.91 in 10.0 mi West 3.5 mph - N/A   Overcast
1:53 AM 50.0 °F 45.0 °F 83% 29.92 in 10.0 mi WSW 4.6 mph - N/A   Clear
2:53 AM 50.0 °F 44.1 °F 80% 29.92 in 10.0 mi SW 3.5 mph - N/A   Clear
3:53 AM 46.9 °F 45.0 °F 93% 29.91 in 10.0 mi Calm Calm - N/A   Clear
4:53 AM 48.0 °F 45.0 °F 89% 29.91 in 10.0 mi South 3.5 mph - N/A   Clear
5:53 AM 48.9 °F 45.0 °F 86% 29.91 in 10.0 mi South 3.5 mph - N/A   Overcast
6:53 AM 50.0 °F 44.1 °F 80% 29.94 in 10.0 mi WSW 4.6 mph - N/A   Overcast
7:53 AM 50.0 °F 44.1 °F 80% 29.96 in 10.0 mi SW 8.1 mph - N/A   Mostly Cloudy
8:53 AM 51.1 °F 45.0 °F 80% 29.98 in 10.0 mi WSW 8.1 mph - N/A   Clear
9:53 AM 53.1 °F 45.0 °F 74% 30.01 in 10.0 mi West 10.4 mph 18.4 mph N/A   Partly Cloudy
10:53 AM 54.0 °F 44.1 °F 69% 30.03 in 10.0 mi West 9.2 mph - N/A   Partly Cloudy
11:53 AM 57.9 °F 44.1 °F 60% 30.04 in 10.0 mi West 8.1 mph 16.1 mph N/A   Scattered Clouds
12:53 PM 57.9 °F 41.0 °F 53% 30.05 in 10.0 mi WNW 8.1 mph 16.1 mph N/A   Clear
1:53 PM 61.0 °F 42.1 °F 50% 30.05 in 10.0 mi Variable 5.8 mph - N/A   Scattered Clouds
2:53 PM 62.1 °F 42.1 °F 48% 30.04 in 10.0 mi WNW 8.1 mph - N/A   Clear
3:53 PM 63.0 °F 42.1 °F 46% 30.04 in 10.0 mi West 6.9 mph - N/A   Clear
4:53 PM 64.0 °F 42.1 °F 45% 30.04 in 10.0 mi NW 6.9 mph - N/A   Clear
5:53 PM 64.0 °F 43.0 °F 46% 30.06 in 10.0 mi NNW 6.9 mph - N/A   Clear
6:53 PM 62.1 °F 44.1 °F 52% 30.08 in 10.0 mi NNW 4.6 mph - N/A   Clear
7:53 PM 59.0 °F 45.0 °F 60% 30.09 in 10.0 mi Calm Calm - N/A   Clear
8:53 PM 55.9 °F 46.9 °F 72% 30.12 in 10.0 mi Calm Calm - N/A   Clear
9:53 PM 54.0 °F 48.0 °F 80% 30.15 in 10.0 mi Calm Calm - N/A   Clear
10:53 PM 50.0 °F 46.9 °F 89% 30.17 in 10.0 mi Calm Calm - N/A   Clear
11:53 PM 48.9 °F 46.0 °F 90% 30.18 in 10.0 mi Calm Calm - N/A   Clear